Find SITRO-AIS-20

NORAD ID: 61758 Int'l Des: 2024-199 Owner: SITRO Country: RU Constellation: sitronics operational
LEOCIRCULARRETROGRADESSO

リアルタイム位置

3D地球を読み込み中...

SITRO-AIS-20について

説明を読み込み中...

次回通過

Passes for default location (London). Set your location on the main map for personalized predictions.

高度履歴

Loading altitude history...

軌道要素

1 61758U 24199Z 26107.24094820 .00002223 00000-0 19466-3 0 9995
2 61758 97.3278 310.5858 0004268 274.8915 85.1821 14.97634342126019
Epoch: Apr 17, 2026 • Age: 13 hours

現在のステータス

高度 577.7 km
速度 7.57 km/s
衛星直下点 -5.35°S, 172.94°W
打ち上げ日 Nov 4, 2024
運用期間 1.4 years
タイプ other

技術仕様

分類 Payload
質量 3.00 kg
乾燥質量 3.00 kg
総質量 3.00 kg
長さ 0.30 m
直径 0.10 m
スパン 0.30 m
形状 Box
製造者 SPUT
バスタイプ Cubesat 3U
フェーズステータス In Orbit
所有者/国 SITRO/RU

Most Searched